Location: Newark
(45.4041°N, 17.9426°E)
Time: 04:55:15
(UTC+00:00)

OTV 5 (USA 277) - Pass Details

Date: 18 October 2019
Orbit: 310 x 324 km, 54.5° (Epoch: 17 October)

Event Time Altitude Azimuth Distance (km) Brightness Sun altitude
Exits shadow 04:35:56 - 292° (WNW) 1,382 ? -6.3°
Reaches altitude 10° 04:36:18 10° 290° (WNW) 1,239 ? -6.3°
Maximum altitude 04:38:49 33° 223° (SW) 570 ? -5.8°
Drops below altitude 10° 04:41:19 10° 156° (SSE) 1,226 ? -5.4°
Sets 04:43:22 0° 146° (SSE) 2,050 ? -5.0°
